| time (UTC) | temp F | wind direction | speed knots | gust knots | rain 1hr in | rain 24hr in | rain mn in | humidity % | barometer mb |
| 20260509102735 | 53 | 265 | 0.0 | 0.0 | 0.00 | 0.00 | 0.00 | 90 | 1002.0 |
| 20260509102123 | 53 | 258 | 0.0 | 0.0 | 0.00 | 0.00 | 0.00 | 90 | 1002.0 |
| 20260509101514 | 53 | 207 | 0.9 | 0.9 | 0.00 | 0.00 | 0.00 | 89 | 1001.6 |
| 20260509100920 | 53 | 210 | 0.9 | 1.7 | 0.00 | 0.00 | 0.00 | 89 | 1001.6 |
| 20260509100325 | 53 | 277 | 0.0 | 0.0 | 0.00 | 0.00 | 0.00 | 88 | 1001.3 |
| 20260509095736 | 53 | 274 | 0.0 | 0.0 | 0.00 | 0.00 | 0.00 | 88 | 1001.6 |
| 20260509095147 | 53 | 276 | 0.0 | 0.0 | 0.00 | 0.00 | 0.00 | 87 | 1001.6 |
| 20260509094533 | 53 | 283 | 0.0 | 0.0 | 0.00 | 0.00 | 0.00 | 87 | 1001.6 |
| 20260509093330 | 53 | 276 | 0.0 | 0.0 | 0.00 | 0.00 | 0.00 | 87 | 1001.6 |
| 20260509092117 | 53 | 271 | 0.0 | 0.0 | 0.00 | 0.00 | 0.00 | 86 | 1002.0 |
| 20260509090945 | 53 | 283 | 0.0 | 0.0 | 0.00 | 0.00 | 0.00 | 86 | 1001.6 |
| 20260509090350 | 53 | 284 | 0.9 | 0.9 | 0.00 | 0.00 | 0.00 | 85 | 1001.6 |
| 20260509085712 | 53 | 273 | 0.0 | 0.0 | 0.00 | 0.00 | 0.00 | 85 | 1001.3 |
| 20260509085139 | 53 | 262 | 0.0 | 0.0 | 0.00 | 0.00 | 0.00 | 86 | 1001.6 |
| 20260509084532 | 53 | 266 | 0.0 | 0.0 | 0.00 | 0.00 | 0.00 | 86 | 1001.6 |
| 20260509083918 | 53 | 266 | 0.0 | 0.0 | 0.00 | 0.00 | 0.00 | 86 | 1001.6 |
| 20260509083337 | 53 | 268 | 0.0 | 0.0 | 0.00 | 0.00 | 0.00 | 85 | 1001.6 |
| 20260509082747 | 53 | 268 | 0.0 | 0.0 | 0.00 | 0.00 | 0.00 | 84 | 1002.0 |
| 20260509080323 | 54 | 268 | 0.0 | 0.0 | 0.00 | 0.00 | 0.00 | 83 | 1002.0 |
| 20260509075754 | 54 | 266 | 0.0 | 0.0 | 0.00 | 0.00 | 0.00 | 82 | 1002.0 |
| 20260509075135 | 54 | 263 | 0.0 | 0.0 | 0.00 | 0.00 | 0.00 | 82 | 1002.0 |
| 20260509073323 | 54 | 269 | 0.0 | 0.0 | 0.00 | 0.00 | 0.00 | 81 | 1002.0 |
| 20260509072738 | 54 | 301 | 0.0 | 0.0 | 0.00 | 0.00 | 0.00 | 81 | 1001.6 |
| 20260509071519 | 54 | 321 | 0.0 | 0.0 | 0.00 | 0.00 | 0.00 | 81 | 1002.0 |
| 20260509070324 | 54 | 265 | 0.0 | 0.0 | 0.00 | 0.00 | 0.00 | 81 | 1002.3 |
| 20260509065751 | 55 | 266 | 0.0 | 0.0 | 0.00 | 0.00 | 0.00 | 81 | 1002.0 |
| 20260509064519 | 55 | 266 | 0.0 | 0.0 | 0.00 | 0.00 | 0.00 | 81 | 1002.0 |
| 20260509063913 | 55 | 266 | 0.0 | 0.0 | 0.00 | 0.00 | 0.00 | 81 | 1002.0 |
| 20260509063311 | 55 | 266 | 0.0 | 0.0 | 0.00 | 0.00 | 0.00 | 80 | 1002.0 |
| 20260509062719 | 55 | 193 | 0.0 | 0.0 | 0.00 | 0.00 | 0.00 | 80 | 1002.0 |
| 20260509062128 | 55 | 213 | 0.0 | 0.0 | 0.00 | 0.00 | 0.00 | 80 | 1002.0 |
| 20260509060912 | 55 | 233 | 0.0 | 0.0 | 0.00 | 0.00 | 0.00 | 79 | 1002.0 |
| 20260509060335 | 55 | 270 | 0.0 | 0.0 | 0.00 | 0.00 | 0.00 | 78 | 1002.0 |
| 20260509054513 | 55 | 269 | 0.0 | 0.0 | 0.00 | 0.00 | 0.00 | 78 | 1002.3 |
| 20260509053935 | 55 | 269 | 0.0 | 0.0 | 0.00 | 0.00 | 0.00 | 77 | 1002.3 |
| 20260509053346 | 55 | 266 | 0.0 | 0.0 | 0.00 | 0.00 | 0.00 | 78 | 1002.3 |
| 20260509052735 | 55 | 264 | 0.0 | 0.0 | 0.00 | 0.00 | 0.00 | 77 | 1002.3 |
| 20260509052136 | 56 | 263 | 0.0 | 0.0 | 0.00 | 0.00 | 0.00 | 76 | 1002.3 |
| 20260509051536 | 56 | 266 | 0.0 | 0.0 | 0.00 | 0.00 | 0.00 | 75 | 1002.3 |
| 20260509050939 | 56 | 213 | 0.0 | 0.0 | 0.00 | 0.00 | 0.00 | 75 | 1002.3 |
| 20260509045724 | 56 | 233 | 0.0 | 0.0 | 0.00 | 0.00 | 0.00 | 74 | 1002.0 |
| 20260509045135 | 56 | 233 | 0.0 | 0.0 | 0.00 | 0.00 | 0.00 | 74 | 1002.0 |
| 20260509044542 | 56 | 301 | 0.0 | 0.0 | 0.00 | 0.00 | 0.00 | 74 | 1002.3 |
| 20260509043947 | 56 | 264 | 0.0 | 0.0 | 0.00 | 0.00 | 0.00 | 74 | 1002.0 |
| 20260509043336 | 56 | 270 | 0.0 | 0.0 | 0.00 | 0.00 | 0.00 | 74 | 1002.3 |
| 20260509042740 | 56 | 271 | 0.0 | 0.0 | 0.00 | 0.00 | 0.00 | 74 | 1002.3 |
| 20260509042146 | 57 | 272 | 0.0 | 0.0 | 0.00 | 0.00 | 0.00 | 73 | 1002.3 |
| 20260509041539 | 57 | 272 | 0.0 | 0.0 | 0.00 | 0.00 | 0.00 | 72 | 1002.7 |
| 20260509040310 | 57 | 272 | 0.0 | 0.0 | 0.00 | 0.00 | 0.00 | 71 | 1002.7 |
| 20260509035750 | 57 | 268 | 0.0 | 0.0 | 0.00 | 0.00 | 0.00 | 73 | 1002.7 |
| 20260509035153 | 57 | 341 | 0.0 | 0.0 | 0.00 | 0.00 | 0.00 | 72 | 1002.7 |
| 20260509034542 | 57 | 268 | 0.0 | 0.0 | 0.00 | 0.00 | 0.00 | 71 | 1002.7 |
| 20260509033926 | 57 | 270 | 0.0 | 0.0 | 0.00 | 0.00 | 0.00 | 70 | 1002.7 |
| 20260509033318 | 58 | 276 | 0.0 | 0.0 | 0.00 | 0.00 | 0.00 | 71 | 1002.7 |
| 20260509031510 | 58 | 265 | 0.0 | 0.0 | 0.00 | 0.00 | 0.00 | 73 | 1003.0 |
| 20260509030315 | 58 | 273 | 0.0 | 0.0 | 0.00 | 0.00 | 0.00 | 72 | 1003.0 |
| 20260509025711 | 58 | 279 | 0.0 | 0.0 | 0.00 | 0.00 | 0.00 | 72 | 1003.0 |
| 20260509025140 | 58 | 275 | 0.0 | 0.0 | 0.00 | 0.00 | 0.00 | 74 | 1003.3 |
| 20260509024550 | 58 | 269 | 0.0 | 0.0 | 0.00 | 0.00 | 0.00 | 72 | 1002.7 |
| 20260509023918 | 59 | 279 | 0.0 | 0.0 | 0.00 | 0.00 | 0.00 | 71 | 1003.0 |
| 20260509023313 | 59 | 287 | 0.0 | 0.0 | 0.00 | 0.00 | 0.00 | 65 | 1003.0 |
| 20260509022717 | 59 | 273 | 0.0 | 0.0 | 0.00 | 0.00 | 0.00 | 65 | 1003.0 |
| 20260509021510 | 59 | 233 | 0.0 | 0.0 | 0.00 | 0.00 | 0.00 | 64 | 1003.0 |
| 20260509020909 | 59 | 271 | 0.0 | 0.0 | 0.00 | 0.00 | 0.00 | 64 | 1003.0 |
| 20260509020312 | 59 | 270 | 0.0 | 0.0 | 0.00 | 0.00 | 0.00 | 65 | 1003.0 |
| 20260509015739 | 60 | 274 | 0.0 | 0.0 | 0.00 | 0.00 | 0.00 | 66 | 1003.0 |
| 20260509015127 | 60 | 277 | 0.0 | 0.0 | 0.00 | 0.00 | 0.00 | 66 | 1003.0 |
| 20260509014516 | 60 | 341 | 0.0 | 0.0 | 0.00 | 0.00 | 0.00 | 64 | 1003.0 |
| 20260509013934 | 60 | 263 | 0.0 | 0.0 | 0.00 | 0.00 | 0.00 | 65 | 1003.0 |
| 20260509013344 | 60 | 275 | 0.0 | 0.0 | 0.00 | 0.00 | 0.00 | 64 | 1003.0 |
| 20260509012746 | 60 | 287 | 0.0 | 0.0 | 0.00 | 0.00 | 0.00 | 67 | 1002.7 |
| 20260509012113 | 60 | 287 | 0.0 | 0.0 | 0.00 | 0.00 | 0.00 | 64 | 1003.0 |
| 20260509010930 | 61 | 252 | 0.0 | 0.0 | 0.00 | 0.00 | 0.00 | 62 | 1002.7 |
| 20260509010308 | 61 | 260 | 0.0 | 0.0 | 0.00 | 0.00 | 0.00 | 62 | 1002.7 |
| 20260509005746 | 61 | 261 | 0.0 | 0.0 | 0.00 | 0.00 | 0.00 | 61 | 1003.0 |
| 20260509005138 | 61 | 273 | 0.0 | 0.0 | 0.00 | 0.00 | 0.00 | 64 | 1002.7 |
| 20260509004522 | 61 | 254 | 0.0 | 0.0 | 0.00 | 0.00 | 0.00 | 61 | 1002.7 |
| 20260509003315 | 61 | 271 | 0.0 | 0.0 | 0.00 | 0.00 | 0.00 | 61 | 1002.7 |
| 20260509002713 | 62 | 271 | 0.0 | 0.0 | 0.00 | 0.00 | 0.00 | 60 | 1003.0 |
| 20260509002119 | 62 | 253 | 0.0 | 0.0 | 0.00 | 0.00 | 0.00 | 59 | 1003.0 |
| 20260509001537 | 63 | 261 | 0.0 | 0.0 | 0.00 | 0.00 | 0.00 | 58 | 1003.0 |
| 20260509000941 | 64 | 254 | 0.0 | 0.0 | 0.00 | 0.00 | 0.00 | 60 | 1003.0 |
| 20260509000311 | 65 | 258 | 0.0 | 0.0 | 0.00 | 0.00 | 0.00 | 60 | 1003.0 |
| 20260508235713 | 66 | 304 | 0.0 | 0.0 | 0.00 | 0.00 | 0.00 | 57 | 1002.7 |
| 20260508235117 | 68 | 274 | 0.0 | 0.0 | 0.00 | 0.00 | 0.00 | 54 | 1002.7 |
| 20260508234534 | 70 | 255 | 0.0 | 0.0 | 0.00 | 0.00 | 0.00 | 50 | 1002.7 |
| 20260508233914 | 69 | 282 | 0.0 | 0.0 | 0.00 | 0.00 | 0.00 | 50 | 1003.0 |
| 20260508233309 | 69 | 337 | 0.0 | 0.0 | 0.00 | 0.00 | 0.00 | 53 | 1002.7 |
| 20260508232725 | 69 | 266 | 0.0 | 0.9 | 0.00 | 0.00 | 0.00 | 42 | 1002.7 |
| 20260508232135 | 70 | 308 | 1.7 | 1.7 | 0.00 | 0.00 | 0.00 | 39 | 1002.7 |
| 20260508231513 | 72 | 232 | 0.9 | 0.9 | 0.00 | 0.00 | 0.00 | 37 | 1002.7 |
| 20260508230947 | 72 | 349 | 1.7 | 1.7 | 0.00 | 0.00 | 0.00 | 40 | 1002.7 |
| 20260508230323 | 72 | 344 | 0.0 | 0.9 | 0.00 | 0.00 | 0.00 | 43 | 1002.7 |
| 20260508225749 | 70 | 308 | 1.7 | 1.7 | 0.00 | 0.00 | 0.00 | 40 | 1002.7 |
| 20260508225148 | 69 | 14 | 1.7 | 2.6 | 0.00 | 0.00 | 0.00 | 41 | 1003.0 |
| 20260508224518 | 70 | 23 | 2.6 | 3.5 | 0.00 | 0.00 | 0.00 | 40 | 1002.7 |
| 20260508223947 | 70 | 16 | 3.5 | 6.1 | 0.00 | 0.00 | 0.00 | 38 | 1003.0 |
| 20260508223318 | 72 | 343 | 3.5 | 5.2 | 0.00 | 0.00 | 0.00 | 37 | 1002.7 |
| 20260508222127 | 72 | 346 | 2.6 | 3.5 | 0.00 | 0.00 | 0.00 | 37 | 1002.7 |
| 20260508221541 | 72 | 332 | 2.6 | 2.6 | 0.00 | 0.00 | 0.00 | 38 | 1002.7 |
| 20260508220935 | 72 | 311 | 3.5 | 3.5 | 0.00 | 0.00 | 0.00 | 38 | 1003.0 |
| 20260508220310 | 72 | 2 | 4.3 | 7.0 | 0.00 | 0.00 | 0.00 | 40 | 1002.7 |
| 20260508215732 | 71 | 308 | 1.7 | 1.7 | 0.00 | 0.00 | 0.00 | 39 | 1002.7 |
| 20260508214546 | 72 | 263 | 2.6 | 5.2 | 0.00 | 0.00 | 0.00 | 38 | 1002.7 |
| 20260508213913 | 71 | 302 | 2.6 | 3.5 | 0.00 | 0.00 | 0.00 | 42 | 1003.0 |
| 20260508212116 | 72 | 320 | 2.6 | 3.5 | 0.00 | 0.00 | 0.00 | 40 | 1003.3 |
| 20260508211515 | 73 | 303 | 0.9 | 1.7 | 0.00 | 0.00 | 0.00 | 38 | 1003.0 |
| 20260508210918 | 74 | 330 | 2.6 | 3.5 | 0.00 | 0.00 | 0.00 | 41 | 1003.0 |
| 20260508210320 | 72 | 344 | 1.7 | 2.6 | 0.00 | 0.00 | 0.00 | 40 | 1002.7 |
| 20260508205739 | 71 | 337 | 4.3 | 6.1 | 0.00 | 0.00 | 0.00 | 41 | 1003.0 |
| 20260508205124 | 73 | 35 | 2.6 | 3.5 | 0.00 | 0.00 | 0.00 | 40 | 1003.0 |
| 20260508204551 | 72 | 1 | 2.6 | 2.6 | 0.00 | 0.00 | 0.00 | 39 | 1003.3 |
| 20260508203919 | 72 | 348 | 5.2 | 7.0 | 0.00 | 0.00 | 0.00 | 38 | 1003.3 |
| 20260508203320 | 73 | 16 | 2.6 | 2.6 | 0.00 | 0.00 | 0.00 | 39 | 1003.7 |
| 20260508202734 | 73 | 340 | 2.6 | 5.2 | 0.00 | 0.00 | 0.00 | 40 | 1003.3 |
| 20260508202114 | 73 | 314 | 5.2 | 8.7 | 0.00 | 0.00 | 0.00 | 39 | 1003.3 |
| 20260508201518 | 73 | 338 | 2.6 | 2.6 | 0.00 | 0.00 | 0.00 | 40 | 1003.3 |
| 20260508200949 | 74 | 354 | 2.6 | 3.5 | 0.00 | 0.00 | 0.00 | 43 | 1003.3 |
| 20260508200343 | 73 | 355 | 3.5 | 5.2 | 0.00 | 0.00 | 0.00 | 38 | 1003.3 |
| 20260508195740 | 73 | 6 | 3.5 | 6.1 | 0.00 | 0.00 | 0.00 | 44 | 1003.3 |
| 20260508195133 | 73 | 23 | 3.5 | 5.2 | 0.00 | 0.00 | 0.00 | 40 | 1003.7 |
| 20260508194552 | 72 | 299 | 1.7 | 2.6 | 0.00 | 0.00 | 0.00 | 39 | 1004.0 |
| 20260508193931 | 72 | 5 | 5.2 | 6.1 | 0.00 | 0.00 | 0.00 | 39 | 1004.4 |
| 20260508193322 | 71 | 294 | 2.6 | 2.6 | 0.00 | 0.00 | 0.00 | 43 | 1004.4 |
| 20260508192726 | 72 | 359 | 3.5 | 3.5 | 0.00 | 0.00 | 0.00 | 39 | 1004.4 |
| 20260508192146 | 72 | 15 | 3.5 | 3.5 | 0.00 | 0.00 | 0.00 | 41 | 1004.4 |
| 20260508191549 | 72 | 303 | 1.7 | 1.7 | 0.00 | 0.00 | 0.00 | 44 | 1004.4 |
| 20260508190936 | 72 | 309 | 2.6 | 2.6 | 0.00 | 0.00 | 0.00 | 47 | 1004.7 |
| 20260508190343 | 71 | 338 | 1.7 | 2.6 | 0.00 | 0.00 | 0.00 | 40 | 1004.7 |
| 20260508185114 | 72 | 270 | 1.7 | 3.5 | 0.00 | 0.00 | 0.00 | 42 | 1005.0 |
| 20260508184545 | 72 | 35 | 5.2 | 6.1 | 0.00 | 0.00 | 0.00 | 41 | 1005.0 |
| 20260508183944 | 71 | 323 | 1.7 | 2.6 | 0.00 | 0.00 | 0.00 | 43 | 1005.4 |
| 20260508183338 | 70 | 196 | 3.5 | 6.1 | 0.00 | 0.00 | 0.00 | 45 | 1005.4 |
| 20260508182736 | 70 | 315 | 3.5 | 6.1 | 0.00 | 0.00 | 0.00 | 41 | 1005.7 |
| 20260508181532 | 70 | 27 | 3.5 | 5.2 | 0.00 | 0.00 | 0.00 | 43 | 1005.7 |
| 20260508180921 | 71 | 358 | 4.3 | 7.0 | 0.00 | 0.00 | 0.00 | 42 | 1005.4 |
| 20260508180349 | 70 | 235 | 0.9 | 1.7 | 0.00 | 0.00 | 0.00 | 43 | 1005.4 |
| 20260508175740 | 71 | 329 | 2.6 | 2.6 | 0.00 | 0.00 | 0.00 | 43 | 1005.7 |
| 20260508175143 | 69 | 352 | 2.6 | 2.6 | 0.00 | 0.00 | 0.00 | 43 | 1006.0 |
| 20260508174511 | 70 | 10 | 5.2 | 7.0 | 0.00 | 0.00 | 0.00 | 43 | 1006.0 |
| 20260508173923 | 70 | 2 | 2.6 | 2.6 | 0.00 | 0.00 | 0.00 | 42 | 1006.0 |
| 20260508173320 | 69 | 297 | 5.2 | 6.1 | 0.00 | 0.00 | 0.00 | 51 | 1006.0 |
| 20260508172740 | 69 | 289 | 1.7 | 1.7 | 0.00 | 0.00 | 0.00 | 45 | 1006.0 |
| 20260508172148 | 69 | 356 | 3.5 | 6.1 | 0.00 | 0.00 | 0.00 | 46 | 1006.4 |
| 20260508170941 | 69 | 356 | 1.7 | 1.7 | 0.00 | 0.00 | 0.00 | 44 | 1006.4 |
| 20260508170314 | 69 | 249 | 1.7 | 1.7 | 0.00 | 0.00 | 0.00 | 43 | 1006.4 |
| 20260508165709 | 68 | 354 | 2.6 | 3.5 | 0.00 | 0.00 | 0.00 | 50 | 1006.7 |
| 20260508165120 | 68 | 308 | 1.7 | 2.6 | 0.00 | 0.00 | 0.00 | 47 | 1007.1 |
| 20260508164533 | 68 | 356 | 2.6 | 3.5 | 0.00 | 0.00 | 0.00 | 45 | 1006.7 |
| 20260508163331 | 67 | 236 | 5.2 | 7.0 | 0.00 | 0.00 | 0.00 | 45 | 1007.1 |
| 20260508162723 | 67 | 283 | 5.2 | 7.0 | 0.00 | 0.00 | 0.00 | 48 | 1007.4 |
| 20260508162130 | 67 | 305 | 5.2 | 6.1 | 0.00 | 0.00 | 0.00 | 50 | 1007.7 |
| 20260508161515 | 67 | 342 | 3.5 | 5.2 | 0.00 | 0.00 | 0.00 | 43 | 1007.7 |
| 20260508160931 | 67 | 30 | 5.2 | 7.0 | 0.00 | 0.00 | 0.00 | 43 | 1007.4 |
| 20260508160338 | 67 | 318 | 3.5 | 3.5 | 0.00 | 0.00 | 0.00 | 45 | 1007.7 |
| 20260508155110 | 66 | 337 | 1.7 | 1.7 | 0.00 | 0.00 | 0.00 | 49 | 1007.7 |
| 20260508154521 | 65 | 341 | 0.9 | 1.7 | 0.00 | 0.00 | 0.00 | 48 | 1007.7 |
| 20260508153937 | 64 | 289 | 0.9 | 0.9 | 0.00 | 0.00 | 0.00 | 47 | 1007.7 |
| 20260508153342 | 64 | 293 | 0.0 | 0.9 | 0.00 | 0.00 | 0.00 | 50 | 1008.1 |
| 20260508152746 | 64 | 278 | 1.7 | 1.7 | 0.00 | 0.00 | 0.00 | 53 | 1007.7 |
| 20260508151536 | 63 | 321 | 1.7 | 1.7 | 0.00 | 0.00 | 0.00 | 52 | 1008.1 |
| 20260508150945 | 63 | 327 | 2.6 | 2.6 | 0.00 | 0.00 | 0.00 | 52 | 1007.7 |
| 20260508145746 | 61 | 336 | 0.0 | 0.9 | 0.00 | 0.00 | 0.00 | 53 | 1008.1 |
| 20260508145148 | 61 | 312 | 1.7 | 2.6 | 0.00 | 0.00 | 0.00 | 53 | 1008.4 |
| 20260508143942 | 61 | 282 | 2.6 | 3.5 | 0.00 | 0.00 | 0.00 | 53 | 1008.4 |
| 20260508142727 | 60 | 320 | 3.5 | 5.2 | 0.00 | 0.00 | 0.00 | 59 | 1008.1 |
| 20260508142149 | 58 | 286 | 0.0 | 0.0 | 0.00 | 0.00 | 0.00 | 64 | 1008.4 |
| 20260508141518 | 57 | 313 | 0.9 | 0.9 | 0.00 | 0.00 | 0.00 | 70 | 1008.4 |
| 20260508140936 | 55 | 354 | 0.0 | 0.9 | 0.00 | 0.00 | 0.00 | 75 | 1008.1 |
| 20260508135748 | 55 | 315 | 0.0 | 0.0 | 0.00 | 0.00 | 0.00 | 74 | 1008.4 |
| 20260508135146 | 54 | 323 | 0.0 | 0.0 | 0.00 | 0.00 | 0.00 | 71 | 1008.4 |
| 20260508134522 | 55 | 8 | 1.7 | 1.7 | 0.00 | 0.00 | 0.00 | 66 | 1008.4 |
| 20260508133916 | 53 | 331 | 0.9 | 0.9 | 0.00 | 0.00 | 0.00 | 73 | 1008.4 |
| 20260508133312 | 52 | 356 | 1.7 | 1.7 | 0.00 | 0.00 | 0.00 | 78 | 1008.4 |
| 20260508132726 | 51 | 286 | 0.0 | 0.0 | 0.00 | 0.00 | 0.00 | 79 | 1008.4 |
| 20260508132122 | 50 | 6 | 0.9 | 0.9 | 0.00 | 0.00 | 0.00 | 81 | 1008.8 |
| 20260508130308 | 46 | 341 | 0.0 | 0.9 | 0.00 | 0.00 | 0.00 | 96 | 1008.4 |
| 20260508125126 | 44 | 284 | 0.0 | 0.0 | 0.00 | 0.00 | 0.00 | 99 | 1008.8 |
| 20260508123936 | 43 | 285 | 0.0 | 0.0 | 0.00 | 0.00 | 0.00 | 99 | 1008.8 |
| 20260508123350 | 42 | 285 | 0.0 | 0.0 | 0.00 | 0.00 | 0.00 | 99 | 1008.8 |
| 20260508122731 | 41 | 285 | 0.0 | 0.0 | 0.00 | 0.00 | 0.00 | 99 | 1008.8 |
| 20260508122120 | 41 | 275 | 0.0 | 0.0 | 0.00 | 0.00 | 0.00 | 99 | 1008.8 |
| 20260508121538 | 40 | 280 | 0.0 | 0.0 | 0.00 | 0.00 | 0.00 | 99 | 1008.8 |
| 20260508120920 | 40 | 283 | 0.0 | 0.0 | 0.00 | 0.00 | 0.00 | 99 | 1008.4 |
| 20260508115710 | 39 | 283 | 0.0 | 0.0 | 0.00 | 0.00 | 0.00 | 99 | 1008.4 |
| 20260508115148 | 39 | 284 | 0.0 | 0.0 | 0.00 | 0.00 | 0.00 | 99 | 1008.1 |
| 20260508114519 | 38 | 297 | 0.0 | 0.0 | 0.00 | 0.00 | 0.00 | 99 | 1008.4 |
| 20260508113930 | 38 | 275 | 0.0 | 0.0 | 0.00 | 0.00 | 0.00 | 99 | 1008.4 |
| 20260508113316 | 38 | 276 | 0.0 | 0.0 | 0.00 | 0.00 | 0.00 | 99 | 1008.4 |
| 20260508112719 | 38 | 285 | 0.0 | 0.0 | 0.00 | 0.00 | 0.00 | 99 | 1008.4 |
| 20260508112143 | 38 | 276 | 0.0 | 0.0 | 0.00 | 0.00 | 0.00 | 99 | 1008.4 |
| 20260508111542 | 37 | 271 | 0.0 | 0.0 | 0.00 | 0.00 | 0.00 | 99 | 1008.4 |
| 20260508110922 | 37 | 272 | 0.0 | 0.0 | 0.00 | 0.00 | 0.00 | 99 | 1008.4 |
| 20260508110326 | 37 | 272 | 0.0 | 0.0 | 0.00 | 0.00 | 0.00 | 99 | 1008.1 |
| 20260508105142 | 37 | 280 | 0.0 | 0.0 | 0.00 | 0.00 | 0.00 | 99 | 1008.1 |
| 20260508103936 | 37 | 3 | 0.0 | 0.0 | 0.00 | 0.00 | 0.00 | 99 | 1008.1 |
| 20260508103338 | 37 | 276 | 0.0 | 0.0 | 0.00 | 0.00 | 0.00 | 99 | 1008.1 |